Regional Weather Roundup
Issued by NWS

Home | Current Version | Previous Version | Graphics & Text | Print | Product List | Glossary Off
Versions: 1 2 3 4 5 6 7 8 9 10 11 12 13 14 15 16 17 18 19 20 21 22 23 24 25 26 27 28 29 30 31 32 33 34 35 36 37 38 39 40 41 42 43 44 45 46 47 48 49 50

271
ASUS43 KLSX 260959
RWRMO

WEATHER SUMMARY FOR MISSOURI
NATIONAL WEATHER SERVICE SPRINGFIELD MO
500 AM CDT WED JUL 26 2017

NOTE: "FAIR" INDICATES FEW OR NO CLOUDS BELOW 12,000 FEET WITH NO
       SIGNIFICANT WEATHER AND/OR OBSTRUCTIONS TO VISIBILITY.
       CURRENT SKY AND/OR WEATHER CONDITIONS ARE NOT AVAILABLE FOR
       CHILLICOTHE AND FARMINGTON.

MOZ001>031-035>038-043-044-053-054-261100-
...NORTHERN AND WESTERN MISSOURI...

CITY           SKY/WX    TMP DP  RH WIND       PRES   REMARKS
KANSAS CTY INT MOCLDY    79  73  82 S12       29.99S
KANSAS C DTWN  CLOUDY    82  74  76 S9        29.98S
LEE`S SUMMIT   PTCLDY    80  73  79 S14       30.00F
ST JOSEPH      CLOUDY    78  75  90 S8        29.98R
CHILLICOTHE      N/A     75  72  90 S3        30.01F
KIRKSVILLE     PTCLDY    72  70  93 SE7       30.04S

$$
MOZ066>068-077>081-088>096-101>105-261100-
...SOUTHWEST MISSOURI...

CITY           SKY/WX    TMP DP  RH WIND       PRES   REMARKS
SPRINGFIELD    CLEAR     74  71  91 S5        30.08S
JOPLIN         PTCLDY    79  74  84 S8        30.05S
BRANSON        CLEAR     75  72  88 CALM      30.10F

$$
MOZ032>034-039>042-045>050-055>058-069>072-261100-
...CENTRAL MISSOURI...

CITY           SKY/WX    TMP DP  RH WIND       PRES   REMARKS
COLUMBIA       CLEAR     73  71  93 SE6       30.04S
JEFFERSON CITY PTCLDY    73  73 100 SE5       30.03S
ROLLA          PTCLDY    73  69  87 SW8       30.07F
SEDALIA        PTCLDY    73  71  93 S7        30.03F
OSAGE BEACH    PTCLDY    74  69  85 CALM      30.06S

$$
MOZ051-052-059>065-261100-
...EAST CENTRAL MISSOURI...

CITY           SKY/WX    TMP DP  RH WIND       PRES   REMARKS
ST LOUIS INTL  PTCLDY    79  70  74 SE9       30.05F
SPIRIT OF STL  CLEAR     76  73  91 CALM      30.03F
ST CHARLES     PTCLDY    73  71  93 E7        30.04S

$$
MOZ072>076-082>087-097>100-106>115-261100-
...SOUTH CENTRAL AND SOUTHEAST MISSOURI...

CITY           SKY/WX    TMP DP  RH WIND       PRES   REMARKS
CAPE GIRARDEAU CLEAR     75  73  93 CALM      30.06F
FARMINGTON     CLEAR     75  74  96 S5        30.08F
POPLAR BLUFF   CLEAR     75  74  96 CALM      30.06F
WEST PLAINS    CLEAR     76  72  87 W3        30.11S

$$




USA.gov is the U.S. government's official web portal to all federal, state and local government web resources and services.